Theta_e
288 288 288 288 288 288 288 288 288 288 288 288 288 288 288 288 288 288 288 288 289 289 289 289 289 289 289 289 289 288 288 288 289 290 291 292 293 295 296 297 298 298 298 298 298 297 296 296 296 296 296 296 297 297 297 296 296 296 295 295 295 295 295 295 296 296 296 296 296 296 296 296 297 297 297 297 297 297 297 297 297 296 296 296 296
288 288 288 288 288 287 287 287 287 287 287 287 287 287 287 287 287 287 287 287 287 287 288 288 288 288 288 289 289 288 288 288 288 288 288 288 289 291 292 294 295 296 297 297 298 297 296 296 296 296 295 295 296 296 296 296 296 296 295 295 295 295 295 295 295 296 296 296 296 296 296 296 296 297 297 297 297 297 297 297 297 297 296 296 296
288 288 288 287 287 287 287 287 287 287 287 287 287 287 287 287 287 287 287 287 287 287 287 287 287 287 287 287 288 288 288 288 288 288 287 287 287 288 288 289 291 293 294 295 296 296 296 296 296 295 295 295 295 295 295 295 295 296 296 295 295 295 294 294 295 295 295 296 296 296 296 296 297 296 296 297 296 296 296 296 296 296 296 296 296
288 287 287 287 287 287 287 287 287 287 287 287 287 287 287 287 287 287 287 287 287 287 287 287 287 287 287 287 287 287 287 287 288 288 287 287 287 287 287 287 288 289 290 291 293 294 295 295 296 295 294 294 294 294 294 294 294 295 295 295 295 295 294 294 294 294 294 295 295 296 296 296 296 297 296 296 296 296 296 296 296 296 296 296 296
288 288 288 288 288 288 288 288 288 288 288 288 288 288 288 288 288 288 288 288 288 288 288 288 288 288 287 287 287 287 287 287 287 287 287 287 287 286 286 286 286 287 287 288 289 290 292 293 295 295 294 294 295 294 293 293 293 293 294 294 294 294 294 294 294 294 294 294 294 294 295 296 296 296 296 296 296 296 296 296 296 296 296 296 296
288 288 288 288 288 288 288 288 288 288 288 288 288 288 288 288 288 288 288 288 288 288 288 288 288 288 288 288 288 288 287 287 287 287 287 287 287 287 286 286 286 286 286 286 287 287 288 289 291 292 293 294 295 295 294 293 293 292 293 293 293 293 293 294 294 294 293 294 293 293 294 294 295 295 295 295 295 295 295 295 295 296 296 296 296
289 289 289 288 288 288 288 288 288 288 288 288 288 288 288 288 288 288 288 288 287 287 287 287 287 287 287 287 288 288 288 288 288 287 287 287 287 286 286 286 286 286 286 286 286 286 286 287 287 288 290 291 293 294 294 294 294 293 292 292 292 292 293 293 293 293 293 293 293 293 293 293 293 294 294 294 294 294 295 295 295 295 296 296 296
289 288 288 288 288 288 288 288 288 288 288 288 288 288 288 287 287 287 287 287 287 287 286 286 286 286 286 287 287 287 287 287 288 288 288 287 287 287 287 286 286 286 286 286 286 286 286 286 286 286 287 288 289 290 292 293 294 294 293 292 291 291 292 292 292 292 292 293 293 293 293 293 293 293 293 293 293 294 294 294 295 295 295 295 296
288 288 288 288 287 287 287 287 287 287 287 287 287 287 287 287 286 286 286 286 286 286 285 285 286 286 286 286 286 286 286 286 286 287 287 287 287 287 287 287 287 286 286 286 286 286 285 285 285 286 286 286 286 287 288 290 292 293 294 293 292 291 291 291 291 292 292 292 292 292 292 292 292 292 292 293 293 293 293 294 294 294 295 295 295
288 288 287 287 287 287 287 287 287 287 286 286 286 286 285 285 285 285 285 285 285 285 285 285 285 285 285 285 285 285 285 285 285 285 285 285 286 286 286 286 287 286 286 286 286 286 286 285 285 285 285 285 286 286 286 287 288 290 292 293 292 292 291 291 291 291 291 291 291 291 291 291 292 292 292 292 292 293 293 293 293 294 294 294 295
288 287 287 287 286 286 286 285 285 285 285 284 284 284 284 284 284 284 284 284 284 284 284 284 284 284 284 284 285 285 285 285 285 285 284 284 284 284 284 284 285 285 285 286 286 286 286 286 286 285 285 285 285 285 286 286 286 287 289 291 292 293 292 292 291 291 291 291 291 291 291 291 291 291 291 292 292 292 292 292 293 293 293 294 294
287 287 287 286 286 285 284 284 284 284 283 283 283 282 282 282 282 282 282 282 283 283 283 283 283 283 283 283 284 284 284 284 285 284 284 284 283 283 282 282 282 283 283 284 285 285 286 286 286 286 286 285 285 285 285 285 286 286 286 288 290 292 293 293 292 291 290 290 290 291 291 291 291 291 291 291 291 291 292 292 292 292 293 293 294
287 286 286 285 284 284 283 283 283 283 282 282 281 281 281 281 281 281 281 281 282 282 282 282 282 282 282 282 283 283 283 284 284 284 284 284 283 283 282 281 281 281 282 282 283 284 284 285 285 286 286 286 285 285 285 285 285 285 286 286 287 289 291 292 293 292 291 290 290 290 291 291 291 291 291 290 290 291 291 291 292 292 292 292 293
286 285 285 284 283 283 283 282 282 282 281 281 281 281 281 280 280 280 280 280 280 280 280 280 281 281 281 281 281 281 282 283 283 283 283 282 282 281 280 280 280 280 281 281 281 282 283 283 284 284 285 286 286 286 285 285 285 285 285 285 285 286 287 289 291 292 292 291 291 291 291 291 290 290 290 290 290 290 290 291 291 291 291 292 292
284 284 283 283 282 282 282 281 281 281 281 281 280 280 280 280 279 279 279 278 278 278 278 278 278 279 279 279 278 279 281 281 281 280 279 279 279 278 278 278 279 279 279 280 280 281 281 282 282 283 284 285 285 285 285 285 285 285 284 285 285 285 286 287 288 290 291 292 292 293 293 292 291 290 290 290 290 290 290 290 290 291 291 291 291
283 283 283 282 282 281 281 281 281 280 280 280 280 279 279 279 278 278 277 278 277 277 277 277 276 277 277 276 276 276 278 279 278 277 276 276 276 276 276 276 277 277 278 278 279 279 280 280 281 281 282 282 284 285 285 285 285 285 285 284 284 285 285 286 286 287 289 291 292 293 294 293 292 291 290 290 290 290 290 289 289 289 290 290 290
283 282 282 282 281 281 281 280 280 280 280 279 279 279 278 278 278 277 276 277 276 276 275 275 275 274 274 274 274 274 275 276 275 274 274 274 274 274 274 275 275 275 276 276 277 277 278 278 279 280 280 281 282 283 283 283 284 284 284 284 284 284 284 285 285 286 286 288 289 291 293 293 292 291 290 290 290 290 289 289 288 288 288 288 289
282 282 282 281 281 281 280 280 279 279 279 279 279 278 278 277 277 276 275 275 274 274 273 273 273 273 272 272 272 272 273 273 272 272 272 272 272 272 272 272 273 273 273 274 275 275 276 277 277 278 279 280 281 282 282 282 283 283 283 284 284 284 284 285 285 285 285 286 287 288 290 292 292 291 291 290 289 289 289 289 289 288 288 288 288
282 282 281 281 280 280 279 279 279 279 279 279 278 278 277 277 276 275 273 273 272 272 272 272 272 272 271 271 271 270 271 272 271 271 271 271 270 270 271 271 271 271 272 272 273 273 274 275 276 276 277 278 279 280 281 281 282 282 283 283 284 284 284 285 285 284 285 285 286 286 288 290 291 291 291 290 290 289 289 289 289 288 288 288 288
281 281 281 280 280 279 279 279 279 279 278 278 277 277 276 276 274 273 272 272 272 271 271 271 271 271 271 271 271 270 270 271 270 270 270 269 269 269 270 270 270 271 271 271 271 271 272 273 274 275 275 276 278 279 280 281 282 282 282 283 283 284 284 285 284 284 284 285 285 286 286 288 290 290 290 290 290 289 289 289 288 288 288 288 288
281 281 280 280 279 279 279 279 279 278 277 277 277 276 275 274 273 272 271 271 271 271 271 271 271 270 270 270 270 269 269 269 269 268 268 268 268 269 269 269 269 270 270 270 271 271 271 272 273 274 274 275 277 278 280 282 283 283 283 283 283 283 284 284 284 284 284 284 285 285 286 287 289 289 289 289 289 290 289 289 288 288 288 288 287
281 281 280 279 279 279 279 278 278 277 277 276 275 274 273 272 271 271 271 271 271 270 270 270 270 269 269 269 268 268 268 268 268 267 267 267 268 268 269 269 269 270 270 270 271 271 272 272 272 273 274 275 276 277 278 280 282 283 284 284 283 283 283 284 284 284 284 284 285 285 286 287 288 289 289 289 289 289 289 289 289 288 288 287 287
281 280 280 279 279 279 279 278 277 277 276 275 273 273 272 272 271 271 271 270 270 270 270 270 269 268 268 268 267 267 268 268 267 267 267 267 267 268 269 269 270 270 270 270 270 270 271 271 272 273 274 275 276 277 278 279 280 282 284 284 284 283 283 283 284 284 284 284 285 286 286 286 287 289 289 289 289 289 289 289 289 288 288 288 287
280 280 279 279 279 279 278 278 277 276 275 273 273 272 272 272 271 271 271 270 270 269 270 269 268 267 267 267 267 267 267 267 267 267 267 267 267 268 268 269 269 270 270 269 269 270 270 270 271 272 273 275 276 277 278 279 280 281 283 284 284 285 284 284 284 285 285 285 286 286 286 285 286 287 289 290 289 288 288 288 288 288 288 287 287
280 279 279 279 278 278 278 278 277 275 274 273 272 272 272 271 271 271 271 270 270 269 269 269 268 267 266 265 266 266 266 266 267 267 267 267 267 268 268 269 269 270 270 270 269 270 270 270 271 272 273 274 275 277 278 279 279 281 282 283 284 285 285 285 285 286 286 286 286 286 285 284 284 285 287 289 288 287 287 287 287 287 287 287 287
279 279 279 278 278 278 278 278 276 275 273 273 272 272 272 271 271 271 271 271 270 269 269 268 266 266 265 265 266 266 266 267 267 267 267 268 268 268 269 269 270 270 270 270 270 270 271 271 271 272 273 274 275 276 277 278 279 280 282 283 284 284 285 285 285 286 286 286 286 286 285 284 284 285 286 287 287 286 286 286 287 287 287 287 286
279 278 278 278 278 278 278 277 276 274 274 273 272 272 272 271 271 271 271 270 269 269 268 266 265 265 265 266 266 267 267 268 268 268 268 268 268 269 270 270 270 270 271 271 271 271 271 271 272 272 273 273 274 275 276 278 279 280 281 282 283 284 285 285 285 285 286 286 286 285 284 284 285 286 286 286 286 286 286 286 286 286 286 286 286
278 278 278 278 278 278 277 276 275 274 273 273 272 273 272 272 272 272 272 270 268 267 266 265 265 266 266 267 267 268 268 268 268 268 269 269 270 270 270 270 270 271 271 271 271 272 272 272 272 273 273 274 274 275 276 278 280 281 282 283 283 283 284 284 285 285 285 286 286 286 285 285 285 286 286 286 286 286 286 285 285 286 286 285 285
278 278 278 278 278 277 277 276 275 274 273 273 272 273 273 272 271 271 272 271 268 266 265 266 266 267 267 267 268 268 268 268 269 269 270 271 272 272 272 272 272 272 272 272 272 273 273 273 273 273 273 274 274 274 275 277 280 281 282 283 284 283 283 284 284 285 285 286 286 286 286 286 285 286 286 286 286 286 286 285 285 285 285 285 285
278 277 278 278 278 277 276 276 275 274 273 272 272 273 273 273 272 271 271 271 269 267 266 267 267 268 268 268 268 269 269 269 270 271 272 272 272 272 272 273 273 273 273 273 273 273 273 273 273 273 273 273 274 274 275 276 278 280 282 282 283 284 284 284 284 285 285 285 286 286 286 285 285 285 286 286 286 286 285 285 284 284 284 284 284
277 277 277 277 277 277 276 275 274 273 273 272 272 272 273 274 274 273 271 271 270 269 269 268 268 268 268 268 269 269 270 270 271 272 272 272 272 272 273 273 273 273 273 274 274 274 274 273 273 273 273 273 274 274 275 276 277 279 280 281 281 282 283 283 283 284 284 285 285 285 285 285 285 285 285 286 286 285 285 284 284 283 283 283 283
277 277 277 277 277 276 276 275 274 273 273 273 272 273 273 273 274 275 274 272 271 271 271 270 269 269 269 268 269 269 270 271 272 272 272 272 273 273 273 274 274 274 274 274 275 274 274 274 274 274 274 274 274 274 275 275 276 278 280 281 281 281 281 282 283 283 284 285 285 285 285 285 285 285 285 285 285 285 284 284 283 283 283 282 282
276 276 276 276 276 276 275 275 274 273 273 272 273 273 273 272 272 273 274 274 274 273 272 271 270 269 269 269 269 269 270 271 272 272 273 273 273 273 274 274 274 274 274 274 274 275 275 275 275 275 274 274 274 274 275 276 276 277 279 281 281 281 281 282 283 283 284 284 284 285 285 285 285 285 285 285 285 284 284 284 283 283 282 282 281
276 276 276 275 275 276 275 274 274 273 273 273 273 273 273 272 271 270 270 271 273 274 274 274 272 270 270 270 270 269 269 270 271 272 273 273 273 274 274 274 274 275 275 274 274 275 275 275 275 275 275 275 275 275 275 276 277 277 279 281 282 281 281 282 283 283 283 283 284 284 284 284 285 285 285 284 284 283 283 283 283 282 282 281 281
275 276 275 275 275 275 275 274 273 273 272 272 273 273 272 272 271 270 269 268 268 270 272 273 274 273 271 271 270 270 269 270 270 271 273 273 274 274 274 274 274 274 274 274 274 274 275 276 276 276 276 276 275 275 276 277 278 278 279 281 282 281 281 281 282 282 282 282 283 283 284 284 285 285 285 284 283 283 283 283 283 282 282 281 280
275 275 275 275 275 275 275 274 273 273 272 272 272 273 272 272 271 271 270 269 267 267 268 270 272 272 272 271 270 271 271 271 271 272 272 272 273 273 273 272 273 273 273 273 274 275 275 276 277 277 277 277 276 276 276 277 278 279 280 281 282 281 280 281 281 282 282 282 283 283 284 284 284 284 284 284 283 283 283 283 282 282 281 281 280
274 274 275 275 275 275 274 274 273 273 272 272 272 273 273 272 272 272 271 270 268 268 268 269 270 271 272 272 271 271 271 272 272 273 273 272 272 272 272 272 272 272 272 273 274 275 275 277 277 278 278 278 278 277 277 277 278 279 280 281 282 281 280 280 281 282 282 283 283 283 284 284 284 284 284 283 283 282 282 282 281 281 280 280 279
274 274 274 274 274 274 274 274 273 273 272 273 273 273 272 272 272 272 272 271 270 269 269 269 269 269 269 271 271 270 270 271 272 273 274 274 274 273 273 273 272 272 273 274 274 275 276 277 278 279 280 280 280 279 278 278 279 280 280 281 282 282 281 281 282 282 283 283 283 283 284 284 284 283 283 283 282 282 281 281 280 279 279 278 278
273 274 274 274 273 273 273 273 273 273 272 273 273 273 273 273 272 272 272 272 271 270 269 269 269 268 268 269 269 268 268 270 272 272 273 273 273 273 273 273 273 273 273 274 275 275 276 277 278 279 280 281 281 280 279 278 279 280 281 282 282 282 281 281 282 282 283 283 283 283 283 283 283 283 282 282 282 281 281 280 280 279 279 278 278
273 273 273 273 273 273 273 272 272 272 272 272 273 273 273 273 272 272 272 272 271 271 270 269 269 269 269 268 267 266 267 269 271 271 272 272 272 272 272 272 273 273 273 274 275 275 276 277 278 279 280 281 281 281 280 280 280 281 281 282 282 282 282 282 282 282 282 282 282 283 282 282 282 282 282 281 281 281 280 280 280 279 279 278 278
272 273 273 273 273 273 272 272 272 272 272 272 272 272 273 272 272 272 272 272 272 272 271 270 270 270 270 269 268 267 268 270 271 271 271 271 271 271 272 272 272 273 273 274 274 275 275 276 277 278 280 280 281 281 281 281 281 281 282 282 282 282 282 282 282 282 282 282 282 282 282 282 282 281 281 281 280 280 279 279 278 278 278 277 276
272 272 273 272 272 272 272 272 272 272 272 272 272 272 272 272 272 272 272 272 272 272 271 271 271 271 271 270 270 270 270 271 271 271 271 271 271 271 271 272 272 272 273 274 274 274 275 276 277 278 279 280 280 280 281 281 281 281 281 281 281 281 282 282 282 282 281 281 281 282 281 281 281 280 280 280 279 279 278 278 277 277 277 276 275
271 271 272 272 272 272 272 272 272 272 271 272 272 272 272 272 272 272 272 272 271 271 271 271 271 271 271 271 271 271 271 271 271 271 271 271 271 271 271 272 272 272 272 273 274 274 275 276 276 277 278 278 278 279 279 279 280 280 280 280 280 280 281 281 281 281 281 281 281 281 280 280 280 279 279 278 278 278 277 277 276 276 276 275 275
270 271 271 271 271 271 271 271 271 271 271 271 271 272 272 272 271 271 271 271 271 271 271 271 271 271 271 271 271 271 271 271 271 271 271 271 271 271 271 271 272 272 272 272 273 274 275 276 276 277 277 277 277 277 278 278 279 279 279 279 279 279 279 279 279 280 280 280 280 280 279 279 278 278 278 277 277 277 276 276 276 275 275 275 274
270 270 270 270 271 271 271 271 271 271 271 271 271 271 271 271 271 271 271 271 271 270 270 270 270 270 270 270 271 270 270 270 270 270 270 271 271 271 271 271 271 272 272 272 272 273 273 274 275 276 276 276 276 276 277 277 277 278 278 278 278 278 278 278 278 278 279 279 279 278 278 278 277 277 277 277 276 276 276 276 275 275 275 274 274
269 269 269 270 270 270 271 271 271 270 270 271 271 271 271 271 271 271 270 270 270 270 270 270 270 270 270 270 270 270 270 270 270 270 270 270 270 270 270 271 271 271 272 272 272 273 273 273 273 273 274 274 275 275 275 276 276 276 277 277 277 277 277 277 277 277 277 277 277 277 277 277 276 276 276 276 275 275 275 275 274 274 274 274 273
268 268 268 269 269 270 270 270 270 270 270 270 270 271 271 271 270 270 270 270 270 270 270 269 269 269 269 269 269 269 269 269 269 269 269 269 270 270 270 270 271 271 271 272 272 272 273 273 273 273 273 273 274 274 274 274 275 275 275 275 276 276 275 275 275 275 275 275 275 275 275 276 275 275 275 275 274 274 274 274 273 273 273 273 273
268 268 268 268 269 269 269 269 270 270 270 270 270 270 270 270 270 270 270 269 269 269 269 269 269 269 269 269 269 269 269 269 269 269 269 269 270 270 270 270 270 270 271 271 272 272 272 272 272 273 273 273 273 273 273 274 274 274 274 274 274 274 274 274 274 274 274 274 274 274 274 274 274 274 274 274 273 273 273 273 273 272 272 272 272
267 267 267 268 268 268 268 269 269 269 269 269 269 269 269 269 270 269 269 269 269 269 269 269 269 269 269 269 269 269 269 269 269 269 269 269 269 270 270 270 270 270 270 271 271 271 272 272 272 272 272 272 273 273 273 273 273 273 274 274 274 274 274 273 273 273 273 273 273 273 273 273 273 273 273 273 273 272 272 272 272 272 272 272 272
267 267 267 267 268 268 268 268 268 268 268 269 269 269 269 269 269 269 269 269 269 269 269 269 269 269 269 269 269 269 269 269 269 269 269 269 269 269 269 270 270 270 270 270 271 271 271 271 272 272 272 272 272 272 272 273 273 273 273 273 273 273 273 273 272 272 272 272 272 272 272 272 273 273 272 272 272 272 272 272 272 272 272 272 272
267 267 267 267 267 267 267 267 267 267 267 268 268 269 269 269 269 269 269 269 268 268 268 268 268 268 268 268 268 268 269 269 269 269 269 269 269 269 269 269 269 270 270 270 270 270 271 271 271 271 272 272 272 272 272 272 272 272 272 272 273 273 272 272 272 272 272 272 272 272 272 272 272 272 272 272 272 272 272 272 272 272 272 272 272
Wind_Speed
17 17 17 18 18 18 19 20 20 21 21 21 21 20 20 19 19 18 18 19 20 21 22 23 24 25 26 26 27 27 26 24 22 22 21 21 20 20 21 22 23 23 23 24 24 25 27 29 30 30 29 31 33 34 37 38 40 43 45 46 46 45 44 45 49 52 49 47 46 46 44 41 40 39 37 35 34 34 33 32 31 31 32 33 33
16 17 18 19 20 20 22 22 23 24 24 25 26 26 27 27 26 26 24 23 23 22 22 23 23 25 26 27 28 28 28 28 27 25 24 23 22 21 21 23 24 25 25 25 25 24 26 28 30 29 28 30 32 32 33 35 36 40 42 44 47 48 47 45 47 49 49 47 46 47 47 45 44 42 41 40 38 36 36 36 34 33 33 34 35
16 17 18 19 21 22 23 24 25 26 27 28 29 30 31 31 31 32 31 31 30 28 28 27 26 26 25 26 27 28 29 29 30 29 28 27 26 24 23 23 24 25 26 27 27 26 27 28 29 28 28 29 31 31 31 32 33 36 39 41 44 47 48 48 48 49 48 46 45 46 47 48 47 45 43 42 40 39 38 37 36 35 35 35 35
16 17 18 19 20 21 23 24 25 27 28 29 30 31 32 33 34 35 35 36 35 35 34 34 33 32 31 29 28 27 27 28 29 30 30 30 30 29 27 26 25 26 26 27 27 27 28 29 29 28 28 30 31 30 30 31 32 34 36 37 39 42 44 46 49 51 50 48 46 45 45 47 47 46 43 42 41 41 40 39 39 38 37 37 36
17 18 19 20 21 22 23 25 27 28 29 30 31 32 33 34 35 36 37 37 38 38 38 38 38 39 38 37 35 33 31 29 29 29 30 31 31 32 31 29 28 27 27 27 27 27 28 30 30 29 28 30 31 31 30 31 31 33 35 36 37 38 39 41 45 48 50 51 51 48 46 46 47 46 44 44 44 43 42 42 42 42 40 39 38
18 20 21 21 22 24 25 28 29 31 32 33 34 34 35 36 36 37 37 38 38 38 39 39 40 41 41 41 41 40 39 37 35 33 32 31 32 33 33 33 32 31 30 29 28 28 28 29 30 30 29 30 31 31 31 31 32 34 35 36 36 36 37 39 41 43 46 49 51 50 50 50 50 49 48 47 47 47 46 46 46 45 44 42 40
21 22 23 24 25 28 30 32 33 34 35 36 37 38 38 39 39 39 39 39 39 39 40 40 41 41 42 43 43 43 43 43 42 41 39 37 36 35 36 36 36 35 34 33 32 31 30 30 30 30 30 30 31 30 30 30 32 34 35 35 35 36 37 39 39 41 44 46 48 50 51 52 51 52 51 49 48 49 49 50 51 49 47 45 44
25 27 29 30 32 34 35 36 36 37 39 39 40 41 41 41 41 41 41 41 41 41 42 43 43 44 44 44 44 44 45 45 45 45 45 44 43 42 40 40 39 39 38 37 36 35 33 33 32 31 30 30 30 29 29 29 30 32 34 35 35 36 37 39 39 41 43 45 47 49 49 51 51 51 51 50 50 52 53 53 53 52 50 49 47
26 29 32 34 35 36 38 39 39 40 41 41 41 41 41 42 42 42 43 43 44 45 45 46 47 47 47 47 47 47 47 47 47 47 47 47 47 47 47 46 44 44 43 42 41 39 38 36 35 34 32 31 30 29 29 28 29 30 31 32 34 36 37 38 39 41 43 44 46 47 48 50 51 52 53 55 56 57 55 53 54 53 51 50 49
25 29 32 33 35 37 38 39 39 40 41 41 42 42 43 44 45 45 46 46 47 48 48 49 49 50 51 51 51 51 51 50 50 50 49 49 49 50 50 50 49 49 48 47 47 45 43 41 39 37 35 34 33 31 30 29 29 30 31 30 32 34 37 39 40 41 43 45 46 46 47 50 52 53 56 58 58 57 55 55 55 54 52 51 51
25 28 31 33 35 36 38 38 40 41 42 43 44 45 46 47 48 49 49 49 50 50 50 51 51 52 53 53 54 54 54 54 53 52 52 52 52 52 52 51 51 51 51 51 51 51 49 47 45 42 39 37 35 34 33 32 31 31 30 30 30 32 35 39 42 42 42 44 46 46 46 50 53 53 54 55 56 56 57 57 56 55 55 55 55
26 29 31 33 34 36 37 39 41 43 44 45 45 46 47 48 49 49 50 51 51 51 52 52 52 52 53 53 55 55 56 56 55 55 55 54 54 54 53 52 51 52 52 53 54 54 54 53 51 49 46 42 39 37 35 35 33 32 31 31 31 31 33 36 41 43 43 44 46 46 48 51 52 51 51 52 54 55 56 56 57 57 58 59 59
29 31 32 33 35 37 39 41 43 44 45 45 45 46 46 47 48 48 49 50 50 51 52 52 52 53 53 54 55 55 56 56 56 56 57 56 56 56 54 52 51 52 53 53 54 54 55 55 55 54 52 49 46 42 39 38 36 35 33 33 32 33 33 34 37 40 43 45 46 48 50 50 50 50 50 49 50 52 55 57 59 59 59 60 61
31 31 33 35 37 39 41 42 43 44 44 44 45 46 46 47 47 47 48 48 49 50 51 52 53 54 54 55 56 57 58 57 57 57 58 58 58 56 53 52 52 52 52 52 52 53 54 54 55 56 56 55 52 49 46 42 39 38 36 35 35 35 34 35 34 36 40 44 48 52 53 51 50 48 47 46 48 51 54 57 59 59 59 59 59
31 33 35 38 39 40 41 42 43 44 44 44 45 45 46 47 48 48 48 49 49 51 52 53 54 55 56 56 57 59 61 60 59 59 58 58 58 55 52 51 52 53 53 52 51 51 52 52 53 54 56 57 56 54 52 48 44 42 40 39 38 37 37 36 36 35 36 39 43 48 51 52 52 49 46 46 47 49 50 51 53 55 56 57 57
33 36 38 40 41 41 42 42 43 43 44 45 46 47 47 48 49 48 49 51 51 52 53 53 54 56 56 56 56 59 62 62 60 58 57 56 55 52 51 52 53 54 55 56 54 52 50 50 51 52 54 56 57 57 55 53 49 46 45 42 41 40 39 38 37 36 36 36 37 39 43 47 52 52 49 48 48 46 44 43 47 50 53 55 56
37 39 40 40 41 41 41 42 43 44 45 46 47 48 48 49 49 49 50 52 52 52 52 53 53 53 54 54 53 55 58 59 55 53 52 51 48 47 49 51 52 54 57 58 57 56 54 53 51 52 53 56 58 58 56 54 51 48 48 46 44 42 42 41 39 38 37 37 37 36 37 39 44 49 51 50 50 47 43 42 46 50 52 54 55
39 39 40 40 40 40 40 41 43 44 45 46 48 49 49 50 51 50 49 50 51 50 49 50 51 50 48 48 48 48 52 53 49 48 48 46 44 44 46 48 51 53 55 56 57 57 57 55 52 50 51 53 54 55 55 53 50 49 49 48 47 46 44 42 41 40 38 37 37 37 37 37 38 42 47 50 51 49 48 49 50 49 51 55 56
39 39 40 39 39 39 40 41 42 44 46 47 48 49 51 51 51 49 48 47 48 47 45 46 48 46 43 43 42 41 45 47 43 42 43 42 39 39 41 44 48 50 51 52 54 55 57 58 57 54 53 54 53 54 54 53 51 51 50 49 49 49 47 44 42 41 39 38 38 38 39 38 37 38 42 46 50 51 52 53 52 49 51 56 56
39 39 38 38 38 39 40 41 43 44 46 47 48 49 50 50 49 48 47 46 45 45 43 43 44 43 40 40 39 38 40 42 39 37 38 37 35 35 37 40 43 46 48 49 52 55 57 58 60 58 55 53 51 51 52 52 51 52 53 52 52 53 51 47 44 42 41 40 39 39 39 39 39 38 39 42 47 51 53 53 51 51 53 55 55
38 38 38 37 38 39 40 42 43 43 44 45 47 47 46 45 45 44 44 44 43 43 42 41 42 42 40 39 39 38 38 39 39 38 36 34 33 32 34 37 39 42 45 48 49 52 54 55 57 56 52 49 48 47 47 47 48 50 52 54 54 54 52 49 45 42 42 42 40 39 39 40 40 40 39 39 42 48 53 54 53 52 54 54 54
38 37 37 37 38 40 41 41 41 42 42 43 43 43 41 39 39 39 40 41 41 41 42 41 42 43 42 40 40 40 39 38 39 37 35 34 32 31 33 35 36 37 42 46 48 49 50 51 53 51 48 46 46 46 46 46 46 48 51 54 55 53 51 49 46 43 43 43 41 41 41 41 41 42 41 41 41 43 49 54 55 54 55 56 55
37 36 36 37 39 40 41 40 40 40 40 39 38 38 37 37 37 37 38 40 41 42 42 42 43 44 44 42 41 40 38 37 37 37 37 35 33 33 33 35 35 36 40 46 48 47 47 49 49 46 43 43 44 45 46 46 47 48 50 51 53 53 50 48 46 44 44 44 43 43 43 42 42 43 43 43 42 42 44 50 54 55 55 56 56
36 35 36 37 38 39 39 39 39 38 36 35 35 36 36 37 37 38 38 39 41 43 42 42 43 45 45 44 43 40 39 39 39 40 40 38 36 36 36 37 37 36 39 44 46 47 47 48 48 46 43 43 44 44 46 46 46 48 48 49 50 50 49 48 47 45 45 45 44 44 44 43 43 43 43 43 43 43 42 45 49 52 53 53 54
35 35 36 37 38 38 39 38 38 36 33 33 34 36 37 38 39 39 39 39 41 42 42 42 43 44 45 46 45 44 43 44 44 44 43 42 40 38 37 37 36 36 38 42 45 45 46 46 47 46 45 45 44 45 46 48 47 47 47 48 48 48 48 48 46 45 45 46 46 46 45 45 44 43 42 42 42 42 42 43 46 48 50 51 52
35 35 36 37 37 37 38 38 37 35 33 33 34 35 37 39 40 40 40 40 40 41 41 42 43 44 46 47 48 48 47 47 47 47 45 45 44 41 39 38 38 38 40 43 45 45 45 44 44 43 42 43 43 43 45 47 47 46 45 46 48 48 48 47 46 46 46 47 47 47 47 46 45 43 41 41 42 42 42 43 44 47 49 50 51
35 35 36 36 36 37 38 38 37 35 34 34 34 35 36 38 39 40 39 39 40 40 41 42 43 45 47 49 49 49 49 48 48 47 46 46 46 45 44 42 41 41 41 44 46 47 46 45 43 41 40 41 42 42 43 41 43 45 45 45 47 47 48 48 47 47 48 48 48 48 47 45 44 43 41 42 43 43 43 43 44 45 47 48 50
34 34 34 35 35 36 36 36 36 36 35 35 35 35 36 38 39 38 37 38 39 40 41 42 44 45 47 49 50 51 50 48 47 46 45 45 46 46 45 44 43 42 43 44 45 46 45 45 44 43 42 42 42 43 41 37 36 42 45 46 47 47 46 47 47 47 48 48 47 46 45 44 44 43 42 42 43 43 43 43 44 45 46 47 48
33 33 34 34 34 35 35 35 34 35 36 36 36 36 36 38 40 40 37 35 36 37 38 40 42 44 44 46 47 49 50 49 46 43 41 40 39 40 40 40 41 42 42 41 42 43 43 44 45 45 43 42 42 42 40 36 32 35 40 42 45 45 44 44 46 47 47 47 46 46 44 43 43 43 42 42 43 43 43 44 44 44 45 46 47
32 32 33 33 33 34 35 34 33 34 35 37 38 38 36 35 37 39 38 36 34 33 34 36 38 39 41 42 42 43 45 45 42 39 37 36 36 36 37 37 38 38 37 36 37 39 41 42 43 43 42 41 40 39 39 37 33 31 33 35 37 39 40 40 43 45 46 46 47 46 44 43 42 42 42 42 42 43 43 44 44 44 45 46 46
32 31 32 32 32 33 34 33 33 33 34 36 39 41 40 36 34 34 36 36 35 33 32 33 34 34 36 38 39 38 39 39 37 35 35 36 37 37 37 35 35 35 34 34 36 40 41 42 42 41 39 38 37 36 37 36 34 32 32 34 34 35 37 39 40 42 44 44 45 44 43 43 43 42 43 43 43 43 44 43 43 44 45 45 46
30 30 31 31 31 31 32 32 32 33 34 36 37 39 42 41 38 35 34 34 35 35 34 33 33 33 33 35 37 38 37 35 34 34 35 36 36 36 34 31 31 32 32 33 37 41 42 42 42 41 39 37 37 36 36 36 35 33 30 32 32 32 35 38 38 40 41 41 41 41 42 43 43 43 43 44 43 44 44 43 43 44 44 44 44
28 29 29 30 30 30 31 31 31 32 33 35 36 37 39 41 42 41 39 37 36 34 33 33 34 35 34 33 34 35 35 33 32 32 33 34 33 32 30 30 31 32 32 33 36 38 40 41 42 41 40 38 37 36 36 36 35 33 30 29 28 27 30 33 33 35 37 37 38 40 41 42 42 43 44 44 44 44 44 43 43 43 43 44 44
26 27 27 28 29 29 30 29 30 31 32 34 36 37 38 39 40 42 42 41 40 38 35 33 33 34 34 33 32 32 33 32 30 29 30 31 31 29 29 30 30 29 29 31 34 36 37 39 40 40 39 37 35 34 34 35 34 32 30 28 24 21 23 27 29 31 33 34 35 38 39 40 42 44 44 44 43 43 43 43 43 44 44 44 44
25 25 25 26 27 28 28 28 29 30 32 33 35 36 37 38 38 39 40 41 41 42 41 38 36 35 35 33 32 31 30 30 30 29 29 29 28 28 29 30 29 29 30 32 34 36 38 39 40 38 35 33 32 31 30 31 31 30 28 25 21 17 20 24 25 27 29 31 33 36 38 40 43 44 45 44 43 43 44 44 44 44 45 45 44
24 24 24 24 25 26 26 27 28 29 31 32 34 35 35 36 37 38 38 38 38 40 42 41 39 37 35 34 32 30 29 29 29 29 28 27 25 26 27 28 29 31 33 34 35 37 38 38 37 35 32 30 28 26 26 29 29 26 24 23 20 18 19 23 25 26 27 30 33 36 39 41 42 43 43 44 44 44 44 44 44 45 45 44 44
23 24 24 24 24 25 25 25 26 28 29 30 32 33 34 35 36 36 37 37 37 38 39 40 39 38 36 34 32 31 31 31 29 28 26 24 24 24 26 27 28 30 32 33 35 36 37 36 35 33 30 28 25 23 24 27 27 24 24 24 21 17 17 20 25 27 29 31 34 36 38 39 40 41 42 43 43 43 43 44 44 44 43 43 42
22 23 23 23 23 24 24 24 25 26 28 29 30 32 33 34 35 35 35 35 35 36 37 37 37 37 37 36 33 32 34 33 31 28 26 25 24 25 26 27 28 28 29 31 31 32 34 35 33 29 26 25 23 21 22 24 26 25 24 24 22 19 18 19 23 26 29 31 33 34 36 37 38 40 41 42 42 43 43 43 43 42 42 41 41
21 21 21 22 22 23 24 24 24 25 26 28 29 31 32 33 33 33 33 33 33 34 35 35 35 35 35 34 32 33 35 34 32 30 28 26 25 25 25 26 27 28 28 29 28 29 30 31 29 26 23 21 19 18 19 22 25 24 23 22 21 20 20 21 24 27 30 31 32 32 33 35 37 38 39 40 41 41 42 42 42 42 41 41 41
20 19 19 20 20 21 22 23 23 23 25 26 27 28 29 30 30 30 30 31 32 32 33 34 34 33 32 31 31 31 33 31 29 29 28 27 26 25 24 24 25 26 27 27 28 28 29 27 26 25 22 18 16 16 18 20 23 24 24 23 22 21 20 21 24 27 30 30 30 31 32 33 35 36 38 39 40 40 41 40 40 40 40 40 40
19 18 18 18 19 20 21 21 21 22 22 23 24 25 26 27 27 28 28 29 30 31 31 32 32 31 31 30 29 28 28 28 28 27 27 26 26 25 24 23 24 24 25 26 28 29 28 26 25 23 21 17 14 14 17 20 22 23 22 21 20 21 22 23 25 27 29 29 29 30 31 32 33 35 36 38 38 39 38 38 38 38 38 37 37
18 17 17 17 18 19 20 20 20 20 20 21 21 23 24 24 25 26 27 28 29 29 30 31 31 30 31 31 31 30 30 30 29 28 27 26 25 25 24 23 23 23 23 24 26 27 27 26 24 22 21 19 16 13 12 14 15 16 17 17 19 21 23 25 26 26 27 27 27 28 29 30 32 33 34 35 36 36 36 36 36 36 36 36 36
16 16 16 17 17 18 18 19 19 19 19 19 20 20 21 22 23 24 25 26 27 28 29 30 30 30 31 31 32 33 34 34 33 32 30 28 26 26 25 24 23 22 22 21 22 23 24 23 23 21 20 19 17 15 13 12 12 13 14 16 18 19 21 22 23 23 23 24 25 27 28 29 30 31 32 32 33 34 34 34 34 34 34 34 34
15 15 15 15 16 16 16 17 17 18 18 18 18 19 19 20 21 23 23 24 25 26 27 28 29 30 31 31 32 33 34 35 36 35 34 32 30 28 27 25 24 23 22 21 20 19 19 19 19 18 17 17 16 14 14 13 14 14 14 15 15 16 17 18 19 19 20 21 23 24 25 26 27 28 29 29 30 30 31 31 32 31 31 31 32
14 14 14 14 15 15 16 15 16 16 17 17 17 18 18 19 20 21 22 23 24 25 25 26 28 29 30 31 32 33 33 34 35 36 36 35 34 32 31 29 27 25 24 22 20 18 17 17 16 15 15 14 15 15 14 14 14 13 13 13 13 13 13 14 15 16 17 18 19 21 22 23 24 25 26 26 27 28 28 29 29 29 29 29 30
13 13 14 14 14 15 15 15 15 15 16 16 17 17 18 18 19 20 21 22 22 23 24 25 26 27 28 30 30 31 32 32 33 34 35 35 35 35 34 32 31 29 27 25 23 21 19 18 18 17 16 16 15 14 14 13 12 11 10 10 9 8 8 9 9 10 11 13 15 17 18 20 21 22 23 23 24 24 25 25 26 27 27 28 29
12 13 13 13 14 14 15 15 15 15 15 15 16 16 17 18 18 18 19 20 21 21 22 23 24 25 26 27 28 29 30 30 31 32 32 33 33 33 33 33 33 32 31 29 27 25 24 22 21 19 18 17 15 14 13 12 11 10 8 7 6 5 5 5 5 5 6 8 11 13 15 16 18 19 20 21 21 22 22 23 24 25 25 26 27
11 12 12 12 13 14 14 14 14 14 14 14 15 15 16 16 17 17 17 18 19 20 21 21 23 24 24 25 26 27 28 28 29 29 30 30 31 31 32 32 32 32 32 31 30 29 28 27 25 23 21 19 17 15 14 12 11 9 8 7 6 5 5 5 5 4 3 4 6 9 12 14 16 17 18 19 19 20 21 22 23 24 24 25 26
11 11 12 12 12 13 13 13 14 14 14 14 14 14 15 15 15 15 16 16 17 18 19 20 21 22 23 24 24 25 26 27 27 28 29 29 29 30 30 30 30 31 31 31 31 30 29 28 27 27 26 25 23 21 19 17 14 12 10 9 8 7 7 7 7 6 4 1 2 6 9 11 14 16 17 18 18 19 19 21 22 22 23 24 24
10 11 12 12 12 12 12 12 12 13 13 14 14 14 14 14 14 15 15 15 16 16 18 19 20 21 22 22 23 23 24 25 26 27 27 28 28 28 29 29 29 29 30 29 29 29 29 28 28 28 27 27 27 27 26 25 23 21 19 17 15 13 12 12 10 8 6 4 2 3 6 9 12 14 15 15 16 17 18 19 20 20 21 22 21
10 11 11 12 12 12 12 11 12 12 12 12 13 13 13 14 14 14 14 15 15 15 16 17 18 19 19 20 20 21 22 22 23 24 25 26 26 27 27 28 28 28 28 28 28 28 27 27 28 28 28 27 27 27 27 27 27 26 25 23 22 21 20 18 16 13 10 7 5 4 5 7 9 11 13 13 14 15 16 17 18 18 18 18 17
Wind_Direction
5 4 3 1 358 356 353 351 349 347 346 344 342 342 340 339 338 335 333 331 327 325 324 322 321 320 320 321 323 324 325 325 323 320 317 314 310 307 304 302 297 291 285 278 271 267 265 264 263 261 258 256 253 251 250 249 250 252 252 253 253 253 253 254 255 257 259 258 260 261 261 259 256 254 252 250 248 248 249 248 246 245 246 245 243
354 354 353 352 351 350 349 348 347 345 344 341 339 338 337 337 336 334 333 331 329 327 324 321 319 317 316 315 315 316 317 319 320 320 319 317 314 311 307 303 301 299 296 292 286 277 270 267 266 265 263 260 257 254 252 251 250 251 251 252 253 253 252 252 254 256 257 256 256 257 257 256 254 253 251 249 248 248 248 248 247 246 245 244 243
345 344 344 344 344 344 343 343 342 341 340 339 338 336 334 333 332 331 329 327 326 325 323 322 319 316 313 311 310 309 310 311 312 314 315 315 314 312 309 306 302 300 298 298 297 292 284 277 272 269 266 264 261 259 257 254 252 251 251 251 252 253 252 252 253 255 256 256 254 254 254 255 254 254 252 251 250 248 249 249 248 247 245 244 243
339 337 335 335 334 334 334 334 334 333 332 332 332 332 331 330 329 328 326 324 323 321 320 319 318 315 313 310 307 306 305 304 305 306 308 310 311 309 308 305 303 301 299 297 297 296 294 290 286 281 275 268 264 263 262 260 256 254 253 252 253 253 253 253 252 253 256 257 255 253 253 254 255 254 252 249 248 248 249 249 247 245 244 243 242
331 329 327 327 328 329 330 330 329 328 327 326 326 326 325 325 325 324 322 321 319 318 318 316 315 314 312 310 308 306 305 302 300 299 300 301 303 305 304 303 301 298 297 295 294 293 292 291 292 292 287 279 272 268 266 263 261 259 257 255 255 255 256 254 252 252 254 256 255 254 253 253 253 253 251 248 247 247 246 245 245 244 242 240 239
323 323 323 323 324 324 325 326 325 325 324 323 323 323 322 322 322 321 320 318 316 316 315 313 312 311 310 309 308 307 305 303 301 298 296 295 294 296 297 298 298 296 295 293 292 291 290 289 289 290 290 288 284 280 275 270 265 263 261 259 259 259 258 257 255 254 254 254 254 254 253 252 252 252 252 250 249 248 246 244 242 241 239 238 237
319 321 322 321 322 322 324 324 325 325 324 323 323 322 322 321 320 320 319 317 316 315 314 312 311 310 308 307 306 306 304 302 301 300 298 296 294 291 290 291 292 293 293 292 291 289 288 288 287 286 286 286 287 288 286 281 274 268 264 263 263 262 260 259 258 257 256 255 254 253 252 252 252 253 253 252 249 247 245 242 240 239 238 237 237
318 322 323 323 323 323 325 326 326 325 323 323 322 321 320 319 318 317 317 316 315 314 313 312 310 309 308 307 306 305 303 301 300 300 299 299 297 295 292 289 288 288 288 289 289 288 286 285 285 285 285 285 285 285 285 285 282 276 270 265 263 263 261 260 259 258 257 256 255 253 252 251 250 250 251 248 245 242 241 239 240 240 239 238 238
316 319 319 319 320 321 322 324 323 322 321 320 319 318 317 316 316 315 314 313 312 311 310 309 307 306 305 304 304 303 302 301 300 300 299 298 298 297 295 293 290 288 286 284 284 284 284 283 282 282 282 283 283 282 281 280 280 279 277 270 264 261 260 260 259 258 256 255 254 253 251 250 248 246 246 245 244 244 242 240 240 240 239 239 240
307 311 312 313 314 315 317 319 319 318 318 317 316 315 314 313 312 311 310 309 307 306 305 303 302 302 301 300 299 298 297 297 297 297 296 296 295 295 295 294 292 291 288 286 283 281 281 281 280 280 279 279 280 280 279 279 277 276 277 273 267 262 258 257 257 256 254 253 252 251 249 249 248 245 244 245 246 246 244 242 240 239 236 236 237
301 305 306 307 309 311 313 315 316 315 315 314 313 312 311 310 309 308 307 306 304 303 301 300 299 298 297 296 295 294 293 293 292 292 292 292 293 293 293 292 291 290 288 287 285 283 281 280 279 279 279 278 277 277 278 277 276 275 274 271 267 263 259 255 253 252 252 252 252 250 248 249 249 247 246 246 245 245 245 244 242 239 236 235 235
298 300 302 305 307 310 312 313 313 313 312 312 311 311 310 309 308 307 306 305 304 302 300 299 298 297 296 294 293 292 291 290 290 290 290 290 291 291 292 291 289 288 287 286 285 284 283 282 280 279 278 277 277 276 276 275 275 274 274 271 267 263 260 257 254 251 250 250 251 250 248 249 250 248 247 245 243 243 244 243 242 240 239 239 238
301 303 306 308 309 311 311 311 311 311 311 311 311 310 309 308 307 306 305 304 303 301 300 299 297 296 295 294 293 292 290 289 288 288 289 289 290 290 291 290 289 287 286 285 284 283 282 281 281 279 278 277 277 276 275 274 274 273 272 272 268 265 262 259 257 254 250 248 249 249 249 249 249 249 249 247 245 243 241 241 242 241 238 239 241
306 308 309 310 311 311 311 311 311 312 312 312 311 310 309 308 307 306 304 302 301 299 298 297 295 294 293 292 291 290 289 288 287 287 288 288 289 290 291 290 288 286 285 283 282 281 280 279 279 279 278 277 276 276 275 274 274 273 271 270 269 268 265 262 259 256 252 248 247 249 249 248 248 250 251 250 248 245 243 243 243 242 241 244 246
309 310 311 312 312 313 313 313 314 314 314 313 312 311 310 308 307 305 303 301 298 296 295 293 292 291 290 289 288 287 287 287 287 287 287 288 289 290 290 289 287 285 283 281 280 279 278 278 277 277 276 276 275 275 275 275 274 273 272 269 268 267 266 264 262 260 257 253 251 253 254 250 248 247 249 251 251 251 251 250 249 249 250 250 248
312 313 314 314 315 315 316 316 316 317 316 315 314 312 311 309 307 305 302 300 298 295 293 292 291 290 289 288 288 287 287 288 288 288 289 289 289 290 289 288 287 285 283 281 279 278 276 275 275 274 273 273 273 272 273 274 273 273 272 270 268 267 266 266 266 264 263 260 257 259 260 256 251 247 246 248 250 252 254 252 248 247 245 244 243
315 315 316 316 317 318 319 319 319 319 318 316 314 313 311 309 307 305 303 301 299 297 296 294 293 292 292 292 291 291 291 291 291 291 291 291 290 289 288 287 286 284 282 280 279 278 277 275 274 273 272 271 271 271 271 271 271 270 270 269 268 267 265 265 266 265 265 264 263 263 263 261 255 250 246 245 246 248 249 246 242 239 236 236 237
315 316 316 317 319 321 322 321 321 319 318 316 314 313 311 309 308 306 305 303 301 300 299 297 296 295 295 295 295 294 293 294 294 293 292 291 290 289 288 287 286 284 283 282 281 279 277 275 273 271 269 269 269 269 269 269 268 266 266 267 266 265 264 265 265 264 264 265 266 266 265 262 257 252 247 244 243 245 244 243 242 238 234 234 236
315 316 317 320 322 323 323 322 320 319 318 317 316 315 313 312 311 310 308 306 305 303 302 300 299 298 298 298 297 296 295 296 297 296 294 294 293 292 291 289 288 286 286 285 284 280 277 274 271 269 268 267 267 267 267 266 265 263 263 263 263 262 263 264 265 264 264 263 265 266 266 264 261 255 250 244 241 241 242 243 242 238 235 236 236
316 317 320 323 324 324 324 323 321 320 320 319 318 317 315 314 313 312 310 309 307 306 305 303 302 301 302 302 301 301 300 301 303 304 302 301 299 296 291 288 287 287 287 286 285 283 280 277 274 272 270 269 268 267 266 264 262 261 261 259 258 260 264 265 264 264 264 264 264 265 266 267 264 260 255 248 241 238 239 241 241 238 237 237 235
318 320 323 324 325 325 325 324 322 322 322 322 320 317 316 315 314 313 312 310 309 308 307 307 305 305 307 307 307 308 308 308 309 310 309 306 303 298 293 290 288 289 289 288 286 285 284 283 281 278 276 272 269 267 265 262 259 258 257 257 257 260 263 264 264 264 264 264 263 263 263 264 264 261 257 253 246 240 238 238 238 237 236 236 235
319 322 324 325 326 326 325 323 323 324 325 324 320 318 319 318 316 316 315 314 313 312 312 312 311 311 312 312 312 312 312 313 313 313 311 308 303 298 295 292 291 291 289 287 286 285 284 284 284 283 280 276 271 268 265 262 259 256 254 256 259 261 261 261 262 261 261 261 260 260 260 260 261 260 258 254 250 244 240 238 237 237 237 236 235
320 322 324 326 326 326 324 324 325 327 327 326 322 322 323 323 321 321 320 319 318 317 316 317 315 314 314 314 314 315 316 316 316 315 313 308 301 297 296 294 292 291 288 286 285 285 284 283 282 282 281 278 274 270 266 263 259 256 253 254 257 259 259 259 258 257 257 257 256 255 256 257 257 258 258 256 253 249 243 240 238 237 237 237 236
320 323 325 326 326 324 324 325 328 330 330 329 327 328 329 329 327 326 324 322 320 319 319 318 317 315 315 315 315 317 318 319 317 316 315 311 303 297 295 294 292 290 287 286 286 286 286 285 282 281 280 279 277 273 269 264 260 256 253 251 252 254 254 254 253 252 252 251 249 249 251 253 254 255 257 259 257 252 247 244 241 238 237 237 237
321 324 326 326 325 324 325 327 330 332 334 335 335 335 335 333 330 328 326 324 321 320 320 320 318 317 315 314 315 317 318 318 317 316 316 313 309 305 301 299 298 295 290 288 288 288 287 286 284 282 280 279 279 277 273 266 260 257 253 250 249 249 249 249 248 247 246 246 245 245 248 251 254 256 258 258 256 251 247 245 242 239 237 236 237
322 325 325 326 326 325 326 329 331 335 340 342 341 341 338 334 331 329 327 325 323 322 321 321 319 317 315 315 316 316 317 317 316 315 315 313 311 311 310 308 306 303 298 294 293 292 291 289 287 285 282 279 279 281 280 271 260 255 253 249 246 246 245 244 244 243 243 243 243 244 248 252 255 255 255 254 252 250 247 244 242 240 237 236 235
322 325 326 326 326 327 329 331 333 338 344 346 344 343 340 335 332 330 328 326 325 324 322 321 319 317 315 315 315 315 315 315 314 314 313 312 311 311 309 307 307 305 302 300 299 298 297 295 293 290 286 283 282 284 287 279 262 252 250 247 243 243 242 242 242 242 241 242 242 244 247 251 251 250 251 251 251 250 248 245 243 241 239 237 235
322 324 326 326 327 328 331 332 335 340 345 347 345 345 342 337 332 331 331 329 326 323 320 318 315 314 313 314 314 313 312 312 312 312 312 312 311 310 308 307 306 304 302 301 301 300 298 296 295 294 290 289 289 288 291 290 272 254 249 247 243 242 243 242 242 241 240 241 241 242 243 245 245 246 248 249 249 250 248 245 243 241 240 237 233
322 324 326 327 328 330 331 334 338 342 345 345 345 346 344 339 333 331 333 333 327 319 313 310 310 311 310 310 311 310 310 311 312 313 313 312 310 309 307 306 305 303 301 301 299 297 294 291 291 290 289 290 291 290 291 295 284 263 252 247 241 240 240 240 239 239 238 238 238 238 238 239 241 244 246 246 248 249 247 245 242 239 237 235 232
322 325 327 328 330 331 332 335 340 344 346 345 344 344 345 342 336 331 332 334 331 322 311 306 307 309 308 308 310 309 308 310 313 314 314 312 309 307 305 303 302 300 298 298 296 292 291 290 289 289 288 288 289 290 290 293 291 276 261 252 244 240 239 240 240 239 238 237 237 236 236 236 237 240 242 243 244 245 244 243 240 237 235 232 229
322 326 328 328 330 332 332 335 341 346 347 346 344 342 341 341 341 338 335 334 333 330 323 316 314 314 312 311 311 311 311 313 315 314 312 310 307 306 304 302 300 298 297 297 295 293 292 290 288 287 287 285 285 287 287 289 293 288 272 259 254 249 244 242 242 239 238 237 236 235 235 235 236 239 241 242 241 240 239 237 235 234 234 232 228
322 326 327 328 331 333 332 335 342 347 347 346 345 342 338 338 341 343 343 339 335 333 332 329 327 326 322 316 313 314 316 317 315 312 310 308 307 306 305 304 302 301 301 300 297 295 292 289 285 283 282 280 280 282 283 283 289 292 279 261 258 256 249 244 242 239 237 236 236 235 235 235 237 239 241 240 238 236 234 232 230 230 231 228 226
322 324 327 329 331 332 332 336 343 347 347 346 344 342 339 337 337 338 342 344 342 340 338 337 335 333 330 324 320 318 318 316 313 310 309 310 310 309 308 307 305 304 304 302 298 297 294 290 286 281 279 278 277 278 280 279 282 290 284 265 259 261 253 244 240 238 236 236 236 236 236 237 238 240 238 235 234 233 231 230 229 228 227 224 223
320 324 327 329 331 331 332 337 343 346 347 346 344 341 339 338 336 334 335 338 341 344 346 346 343 339 336 333 330 326 322 318 317 315 313 313 312 310 309 309 307 306 309 308 305 304 302 297 291 283 278 277 275 275 277 276 278 287 286 267 257 262 257 246 241 240 239 239 239 238 238 239 239 237 234 231 229 229 229 229 228 226 225 222 220
319 323 326 328 330 331 333 337 343 346 346 346 344 340 339 338 337 334 333 331 332 334 338 342 344 343 340 339 336 332 326 323 322 321 318 316 313 310 310 314 316 317 320 319 317 314 311 306 301 293 284 278 274 273 274 273 275 285 284 265 256 270 267 251 246 246 243 242 242 240 240 240 238 236 233 231 228 226 226 226 226 226 224 221 218
320 323 326 328 330 331 333 338 344 346 346 344 342 340 338 338 336 335 334 332 330 329 330 334 339 341 341 341 339 334 331 330 328 327 325 323 321 318 319 322 324 323 323 323 321 319 316 314 311 305 295 284 274 270 270 268 269 279 279 261 258 278 274 253 248 248 244 242 242 240 239 238 236 234 232 230 229 229 228 227 226 224 222 220 216
321 323 325 328 330 331 333 339 345 347 345 343 341 339 339 339 337 336 335 334 333 332 331 333 337 339 341 343 342 338 337 336 334 330 328 328 328 329 329 328 326 323 321 322 323 322 323 325 325 318 306 293 279 266 263 261 261 268 271 260 259 276 277 258 252 251 248 245 243 240 238 238 236 234 232 229 227 226 224 223 222 220 218 217 215
321 323 326 330 331 332 334 340 346 348 345 343 341 341 341 340 339 338 337 337 337 337 337 338 340 340 340 342 344 343 340 339 338 336 334 334 336 337 335 331 327 325 324 325 327 327 328 330 332 329 318 304 288 271 259 253 251 259 267 263 262 273 279 267 258 254 250 248 246 242 240 239 236 233 231 228 226 223 221 220 219 216 214 213 212
319 322 327 330 332 333 336 341 347 348 346 345 344 344 343 342 342 342 342 342 343 344 344 344 345 344 343 345 347 345 340 340 342 342 341 342 342 342 340 336 333 332 331 330 331 332 331 332 336 337 330 317 302 283 261 247 245 254 263 262 263 270 274 269 264 258 253 249 247 244 241 238 235 232 229 227 226 224 222 220 219 217 215 214 213
319 322 327 330 333 335 337 342 346 348 347 347 347 347 347 347 347 348 349 351 352 353 353 353 353 353 354 354 351 343 337 339 345 346 345 346 346 346 347 345 341 339 338 337 337 337 337 339 344 345 339 329 313 292 272 258 256 260 262 262 266 271 271 268 266 262 255 250 247 244 242 238 235 231 228 226 225 225 224 222 221 218 217 216 214
318 322 326 331 335 337 339 342 345 348 350 350 350 352 353 353 354 356 358 0 1 2 3 4 5 6 8 7 3 354 348 350 353 352 351 350 349 348 350 349 347 346 345 343 343 342 342 344 348 349 347 342 326 299 279 270 268 269 270 272 278 279 274 268 264 260 255 250 247 244 242 239 236 232 228 225 224 223 222 221 218 215 213 212 210
316 321 326 332 337 338 339 341 344 347 350 352 354 356 357 359 1 3 5 7 8 9 11 13 15 17 18 18 16 13 10 8 6 3 359 357 354 352 352 351 351 351 350 348 347 345 344 346 349 350 351 352 347 332 309 291 283 282 284 287 288 285 277 269 262 257 252 248 246 244 241 238 234 230 227 224 222 220 218 217 215 212 211 209 208
315 322 327 333 337 337 337 339 342 345 348 352 355 356 357 1 4 7 9 11 12 13 14 15 17 19 22 23 23 23 22 21 18 15 12 9 5 1 358 356 354 354 353 352 351 349 347 348 350 352 353 351 348 346 341 330 320 313 309 304 298 292 283 273 264 257 252 247 244 242 238 234 230 226 223 221 220 218 216 215 213 211 210 208 207
315 322 327 331 333 334 335 336 339 343 347 351 353 353 354 358 3 6 9 12 14 16 16 16 16 19 21 23 25 26 26 26 25 24 22 20 18 15 11 7 4 1 358 358 358 356 354 353 353 353 351 349 349 349 348 343 337 332 326 321 313 302 288 275 265 259 255 250 246 241 236 232 229 225 222 220 219 216 214 213 211 209 208 206 205
316 322 326 329 331 331 332 334 337 341 345 348 350 351 352 356 1 4 7 11 15 17 18 18 19 20 21 23 24 26 26 27 27 27 27 28 27 26 24 21 17 13 9 6 4 3 3 4 4 3 1 1 2 2 0 357 354 350 343 335 326 313 299 286 274 267 261 256 250 243 237 231 227 224 222 219 217 216 214 212 210 209 207 206 205
317 323 325 328 331 332 332 334 337 340 342 345 347 350 353 356 359 3 6 10 14 16 18 20 22 23 24 24 25 25 26 27 27 28 29 30 31 31 31 31 29 27 24 20 17 15 15 15 14 14 14 13 13 13 13 13 12 9 5 0 353 341 327 315 301 289 278 266 256 247 240 232 225 222 220 217 215 213 211 209 208 206 204 203 202
318 323 325 329 332 333 333 335 338 341 343 344 346 349 353 356 358 2 6 10 12 15 18 21 23 24 25 26 25 26 26 27 28 28 29 30 31 32 33 34 34 34 33 32 31 30 30 28 25 23 21 20 20 21 23 26 29 30 31 32 30 23 12 357 340 319 294 273 257 247 240 232 223 217 215 213 210 207 205 203 202 201 200 199 197
317 321 324 329 332 332 333 337 340 342 344 345 346 350 354 356 358 2 7 10 12 14 17 19 21 23 25 26 26 26 26 27 28 29 30 30 31 31 32 33 35 36 36 36 35 36 37 38 38 36 34 32 31 30 30 32 34 39 44 50 53 55 55 45 30 14 333 278 253 239 233 226 217 210 207 205 203 200 197 195 194 194 193 191 189
315 319 323 329 331 331 334 338 341 344 345 347 349 352 355 356 358 2 7 10 13 14 15 17 18 20 22 24 25 26 26 26 27 28 29 30 31 31 32 32 34 35 37 38 37 36 37 40 43 45 46 46 46 46 45 45 45 45 47 50 54 60 69 69 64 58 51 30 234 225 221 216 208 201 198 196 194 193 190 189 187 186 184 181 180
313 317 321 325 328 329 333 338 341 342 343 345 348 352 355 356 358 2 6 9 12 13 13 14 15 17 18 20 22 24 25 26 26 27 27 28 30 31 32 33 34 35 36 38 39 38 38 39 41 45 48 50 52 53 53 53 54 55 55 57 59 61 64 66 66 67 69 81 131 190 206 205 199 193 189 187 186 185 183 181 178 176 174 174 174
312 315 318 320 322 325 329 334 338 339 341 344 348 352 354 356 358 1 3 5 6 9 10 11 12 14 15 16 18 20 22 24 25 26 27 27 28 29 30 32 33 34 36 37 38 39 40 41 43 44 46 47 49 51 52 53 53 55 57 59 61 62 61 61 61 63 65 71 87 124 165 180 180 176 174 174 174 174 172 169 167 166 167 168 170